TimeCET,TemperatureF,Dew PointF,Humidity,Sea Level PressureIn,VisibilityMPH,Wind Direction,Wind SpeedMPH,Gust SpeedMPH,PrecipitationIn,Events,Conditions,WindDirDegrees,DateUTC
12:20 AM,41.0,39.2,93,29.98,5.0,SSE,8.1,-,N/A,,Unknown,150,2012-11-20 23:20:00
12:50 AM,41.0,39.2,93,29.95,5.0,SSE,6.9,-,N/A,,Unknown,160,2012-11-20 23:50:00
1:00 AM,41,39,88,29.98,5,SSE,6.7,,,,Clear,160,2012-11-21 00:00:00
1:20 AM,41.0,39.2,93,29.95,5.0,SSE,8.1,-,N/A,,Unknown,150,2012-11-21 00:20:00
1:50 AM,39.2,37.4,93,29.95,5.0,SSE,5.8,-,N/A,,Unknown,160,2012-11-21 00:50:00
2:20 AM,39.2,37.4,93,29.95,5.0,SSE,5.8,-,N/A,,Unknown,160,2012-11-21 01:20:00
2:50 AM,39.2,37.4,93,29.92,5.0,SSE,6.9,-,N/A,,Unknown,160,2012-11-21 01:50:00
3:20 AM,39.2,37.4,93,29.92,5.0,SSE,9.2,-,N/A,,Unknown,160,2012-11-21 02:20:00
3:50 AM,39.2,37.4,93,29.92,-9999.0,South,5.8,-,N/A,,Clear,170,2012-11-21 02:50:00
4:00 AM,39,37,90,29.93,6,South,6.7,,,,Clear,170,2012-11-21 03:00:00
4:20 AM,39.2,37.4,93,29.89,-9999.0,SSE,8.1,-,N/A,,Clear,150,2012-11-21 03:20:00
4:50 AM,39.2,37.4,93,29.89,-9999.0,SSE,6.9,-,N/A,,Clear,150,2012-11-21 03:50:00
5:20 AM,39.2,37.4,93,29.89,-9999.0,SE,9.2,-,N/A,,Clear,140,2012-11-21 04:20:00
5:50 AM,39.2,37.4,93,29.89,-9999.0,SSE,8.1,-,N/A,,Clear,150,2012-11-21 04:50:00
6:20 AM,39.2,37.4,93,29.89,-9999.0,SSE,5.8,-,N/A,,Clear,150,2012-11-21 05:20:00
6:50 AM,39.2,35.6,87,29.86,-9999.0,SSE,5.8,-,N/A,,Clear,150,2012-11-21 05:50:00
7:00 AM,40,36,82,29.89,7,SSE,6.7,,,,Clear,150,2012-11-21 06:00:00
7:20 AM,39.2,35.6,87,29.86,-9999.0,SE,4.6,-,N/A,,Clear,140,2012-11-21 06:20:00
7:50 AM,39.2,35.6,87,29.86,-9999.0,SSE,5.8,-,N/A,,Clear,150,2012-11-21 06:50:00
8:20 AM,39.2,35.6,87,29.86,-9999.0,SE,6.9,-,N/A,,Clear,140,2012-11-21 07:20:00
8:50 AM,39.2,35.6,87,29.86,-9999.0,SE,4.6,-,N/A,,Clear,140,2012-11-21 07:50:00
9:20 AM,41.0,37.4,87,29.86,-9999.0,SE,6.9,-,N/A,,Clear,140,2012-11-21 08:20:00
9:50 AM,42.8,37.4,81,29.83,-9999.0,SSE,8.1,-,N/A,,Clear,160,2012-11-21 08:50:00
10:00 AM,42,37,75,29.86,14,SSE,8.9,,,,Scattered Clouds,160,2012-11-21 09:00:00
10:20 AM,42.8,37.4,81,29.86,-9999.0,South,11.5,-,N/A,,Clear,170,2012-11-21 09:20:00
10:50 AM,42.8,37.4,81,29.86,-9999.0,South,11.5,-,N/A,,Clear,170,2012-11-21 09:50:00
11:20 AM,42.8,37.4,81,29.83,-9999.0,SSE,9.2,-,N/A,,Clear,160,2012-11-21 10:20:00
11:50 AM,44.6,37.4,76,29.83,-9999.0,South,5.8,-,N/A,,Clear,180,2012-11-21 10:50:00
12:20 PM,46.4,39.2,76,29.83,-9999.0,South,8.1,-,N/A,,Clear,180,2012-11-21 11:20:00
12:50 PM,46.4,39.2,76,29.83,-9999.0,South,11.5,-,N/A,,Clear,190,2012-11-21 11:50:00
1:00 PM,46,39,67,29.85,16,South,13.4,,,,Mostly Cloudy,190,2012-11-21 12:00:00
1:20 PM,46.4,41.0,81,29.83,6.2,South,11.5,-,N/A,Rain,Light Rain,180,2012-11-21 12:20:00
2:20 PM,44.6,41.0,87,29.83,6.2,South,12.7,-,N/A,Rain,Light Rain,180,2012-11-21 13:20:00
2:50 PM,46.4,41.0,81,29.83,6.2,South,13.8,-,N/A,Rain,Light Rain,190,2012-11-21 13:50:00
3:20 PM,46.4,42.8,87,29.86,6.2,SSW,13.8,-,N/A,Rain,Light Rain,200,2012-11-21 14:20:00
3:50 PM,46.4,42.8,87,29.86,6.2,SSW,13.8,-,N/A,,Mostly Cloudy,200,2012-11-21 14:50:00
4:00 PM,47,43,81,29.87,11,South,13.4,,,Rain,Light Rain,190,2012-11-21 15:00:00
4:20 PM,46.4,42.8,87,29.86,6.2,SSW,13.8,-,N/A,,Mostly Cloudy,200,2012-11-21 15:20:00
4:50 PM,48.2,44.6,87,29.86,6.2,SSW,16.1,-,N/A,,Mostly Cloudy,200,2012-11-21 15:50:00
5:20 PM,48.2,42.8,82,29.89,6.2,SSW,13.8,-,N/A,,Scattered Clouds,200,2012-11-21 16:20:00
5:50 PM,48.2,44.6,87,29.89,6.2,SSW,18.4,31.1,N/A,,Scattered Clouds,200,2012-11-21 16:50:00
6:20 PM,48.2,44.6,87,29.89,6.2,SSW,17.3,-,N/A,,Scattered Clouds,210,2012-11-21 17:20:00
6:50 PM,48.2,44.6,87,29.92,6.2,SW,18.4,-,N/A,,Partly Cloudy,220,2012-11-21 17:50:00
7:00 PM,49,44,77,29.92,22,SW,17.9,,,,Partly Cloudy,220,2012-11-21 18:00:00
7:20 PM,50.0,44.6,82,29.92,6.2,SW,18.4,-,N/A,,Mostly Cloudy,220,2012-11-21 18:20:00
7:50 PM,50.0,42.8,76,29.95,6.2,SW,20.7,32.2,N/A,,Mostly Cloudy,230,2012-11-21 18:50:00
8:20 PM,50.0,42.8,76,29.95,6.2,SW,20.7,-,N/A,,Mostly Cloudy,230,2012-11-21 19:20:00
8:50 PM,50.0,42.8,76,29.98,6.2,WSW,19.6,-,N/A,,Mostly Cloudy,240,2012-11-21 19:50:00
9:20 PM,50.0,42.8,76,30.01,6.2,WSW,18.4,32.2,N/A,,Mostly Cloudy,240,2012-11-21 20:20:00
9:50 PM,50.0,42.8,76,30.01,6.2,WSW,17.3,-,N/A,,Mostly Cloudy,240,2012-11-21 20:50:00
10:00 PM,50,42,67,30.04,16,WSW,17.9,,,,Mostly Cloudy,240,2012-11-21 21:00:00
10:20 PM,48.2,42.8,82,30.04,6.2,WSW,16.1,-,N/A,,Scattered Clouds,240,2012-11-21 21:20:00
10:50 PM,46.4,42.8,87,30.04,6.2,SW,15.0,-,N/A,,Partly Cloudy,230,2012-11-21 21:50:00
11:20 PM,46.4,42.8,87,30.06,6.2,WSW,13.8,-,N/A,,Partly Cloudy,240,2012-11-21 22:20:00
11:50 PM,46.4,42.8,87,30.06,6.2,SW,13.8,-,N/A,,Partly Cloudy,230,2012-11-21 22:50:00